This demonstration page uses our WeatherBlox Daily Observations layout. Learn more.

Left ArrowRight Arrow

39.92423, -83.80882

Hourly Observations for October 23, 2020

Temp ( °F °C ) Dew Point ( °F °C ) Humidity (%) Winds ( mph kmh ) Pressure ( in mb ) Visibility ( mi km ) Precip ( " mm )
12:56 am 00:56 Clear 64 17.8 60 15.6 87 87 S 6 9 30.05 1018 10 16.0934 0 0
1:56 am 01:56 Clear 65 18.3 60 15.6 84 84 S 6 9 30.04 1017 10 16.0934 0 0
2:56 am 02:56 Clear 65 18.3 60 15.6 84 84 S 7 11 30.03 1017 10 16.0934 0 0
3:56 am 03:56 Partly Cloudy 64 17.8 59 15 84 84 S 8 13 30.03 1017 10 16.0934 0 0
4:56 am 04:56 Cloudy 64 17.8 59 15 84 84 S 6 9 30.03 1017 10 16.0934 0.01 0.254
5:56 am 05:56 Clear 63 17.2 59 15 87 87 SSW 6 9 30.04 1017 10 16.0934 0 0
6:56 am 06:56 Mostly Clear 62 16.7 60 15.6 93 93 SSW 3 6 30.05 1018 10 16.0934 0 0
7:56 am 07:56 Mostly Sunny 61 16.1 60 15.6 97 97 S 3 6 30.06 1018 10 16.0934 0 0
8:56 am 08:56 Cloudy 63 17.2 61 16.1 93 93 S 8 13 30.06 1018 10 16.0934 0 0
9:56 am 09:56 Mostly Cloudy 67 19.4 62 16.7 84 84 SSW 10 17 30.05 1018 10 16.0934 0 0
10:56 am 10:56 Cloudy 69 20.6 63 17.2 81 81 SSW 10 17 30.04 1017 10 16.0934 0 0
11:56 am 11:56 Mostly Cloudy 73 22.8 64 17.8 74 74 SSW 17 28 30.02 1017 10 16.0934 0 0
12:56 pm 12:56 Mostly Cloudy 76 24.4 66 18.9 72 72 WSW 13 20 30 1016 10 16.0934 0.01 0.254
1:16 pm 13:16 Mostly Cloudy 75 24 66 19 74 74 SW 14 22 29.97 1015 10 16.0934 0 0
1:56 pm 13:56 Mostly Cloudy 77 25 66 18.9 69 69 SSW 15 24 29.98 1015 10 16.0934 0 0
2:33 pm 14:33 Partly Cloudy 77 25 66 19 69 69 SW 15 24 29.92 1013 10 16.0934 0 0
2:56 pm 14:56 Partly Cloudy 78 25.6 66 18.9 67 67 SSW 14 22 29.95 1014 10 16.0934 0 0
3:15 pm 15:15 Partly Cloudy with Thunderstorms 79 26 66 19 65 65 SW 16 26 29.9 1013 10 16.0934 0 0
3:30 pm 15:30 Mostly Sunny 77 25 66 19 69 69 SSW 15 24 29.9 1013 10 16.0934 0 0
3:56 pm 15:56 Mostly Sunny 78 25.6 66 18.9 67 67 SSW 10 17 29.92 1013 10 16.0934 0 0
4:56 pm 16:56 Mostly Cloudy 76 24.4 66 18.9 72 72 SW 13 20 29.92 1013 10 16.0934 0 0
5:15 pm 17:15 Mostly Cloudy 73 23 66 19 78 78 SSW 6 9 29.9 1013 10 16.0934 0 0
5:26 pm 17:26 Partly Cloudy 73 23 66 19 78 78 SSW 5 7 29.89 1012 10 16.0934 0 0
5:56 pm 17:56 Mostly Cloudy 74 23.3 66 18.9 76 76 SSW 5 7 29.92 1013 10 16.0934 0 0
6:26 pm 18:26 Mostly Cloudy with Nearby Thunderstorms 73 23 66 19 78 78 SSW 5 7 29.87 1012 10 16.0934 0.01 0.254
6:56 pm 18:56 Cloudy with Light Thunderstorms 68 20 68 20 100 100 S 14 22 29.91 1013 5 8.0467 0.01 0.254
7:13 pm 19:13 Cloudy with Heavy Thunderstorms 66 19 66 19 100 100 Calm 29.9 1012 3 4.82802 0 0
7:56 pm 19:56 Cloudy with Heavy Thunderstorms 63 17.2 63 17.2 100 100 WNW 14 22 29.94 1014 7 11.26538 0 0
8:04 pm 20:04 Cloudy with Thunderstorms 63 17 63 17 100 100 W 14 22 29.93 1014 8 12.87472 0 0
8:11 pm 20:11 Cloudy with Nearby Thunderstorms 63 17 63 17 100 100 W 15 24 29.94 1014 10 16.0934 0 0
8:50 pm 20:50 Cloudy with Light Rain 63 17 63 17 100 100 WSW 6 9 29.96 1015 10 16.0934 0 0
8:56 pm 20:56 Cloudy with Light Rain 62 16.7 62 16.7 100 100 SW 3 6 29.97 1015 10 16.0934 0 0
9:45 pm 21:45 Cloudy 63 17 63 17 100 100 WNW 10 17 29.95 1014 10 16.0934 0 0
9:56 pm 21:56 Cloudy 61 16.1 61 16.1 100 100 NW 13 20 29.97 1015 10 16.0934 0 0
10:56 pm 22:56 Cloudy 56 13.3 56 13.3 100 100 NW 20 31 30.02 1017 10 16.0934 0 0
11:31 pm 23:31 Cloudy 52 11 52 11 100 100 NW 18 30 30.06 1018 10 16.0934 0 0
11:51 pm 23:51 Cloudy 50 10 50 10 100 100 NW 12 19 30.07 1018 9 14.48406 0 0
11:56 pm 23:56 Cloudy 50 10 50 10 100 100 NW 15 24 30.06 1018 10 16.0934 0 0

Powered by AerisWeather